Location: ?????
(31.8092°N, 35.2590°E)
Time: 19:59:11
(UTC+00:00)

Cosmos 1447 Rocket - Pass Details

Date: 20 June 2021
Orbit: 954 x 996 km, 82.9° (Epoch: 31 July)

Event Time Altitude Azimuth Distance (km) Brightness Sun altitude
Exits shadow 20:00:16 78° 247° (WSW) 996 4.4 -29.8°
Maximum altitude 20:00:30 79° 275° (W) 991 4.4 -29.8°
Drops below altitude 10° 20:06:42 10° 3° (N) 2,706 7.5 -30.4°
Sets 20:09:13 0° 5° (N) 3,651 8.4 -30.6°
